EDW56Z LSZH-LGKO

Flight info

Callsign EDW56Z
Flight time 2h 31m
Altitude 35000
Route DEGES Z2 TUNUM Z204 GEDSO DCT VEKEN DCT RUDIK/N0445F370 DCT MEDUX UM867 KOGAT DCT ERANA DCT TSL DCT MES UN139 LURUS UL995 KOPAR
Aircraft A320/M-SDE2E3FGIRWXY/L

Departure

Time 2026-05-07 09:07
Airport Zürich Airport (LSZH)

Arrival

Time 2026-05-07 11:38
Airport Kos International Airport "Ippokratis" (LGKO)
Time Latitude Longitude Altitude Speed Heading
2026-05-07 08:54 47.45412 8.56002 1407 ft 0 kts 186°
2026-05-07 08:59 47.45423 8.56004 1411 ft 4 kts 182°
2026-05-07 08:59 47.45450 8.56003 1413 ft 4 kts 170°
2026-05-07 08:59 47.45476 8.55992 1409 ft 4 kts 148°
2026-05-07 09:00 47.45492 8.55967 1413 ft 3 kts 100°
2026-05-07 09:00 47.45493 8.55961 1412 ft 0 kts 96°
2026-05-07 09:01 47.45493 8.55962 1412 ft 1 kts 96°
2026-05-07 09:02 47.45488 8.56036 1411 ft 8 kts 96°
2026-05-07 09:02 47.45482 8.56115 1407 ft 9 kts 96°
2026-05-07 09:02 47.45483 8.56214 1408 ft 9 kts 72°
2026-05-07 09:02 47.45523 8.56297 1411 ft 8 kts 51°
2026-05-07 09:03 47.45571 8.56384 1413 ft 11 kts 51°
2026-05-07 09:03 47.45594 8.56472 1414 ft 11 kts 89°
2026-05-07 09:03 47.45587 8.56575 1416 ft 7 kts 94°
2026-05-07 09:03 47.45583 8.56634 1417 ft 8 kts 97°
2026-05-07 09:04 47.45575 8.56741 1419 ft 13 kts 96°
2026-05-07 09:04 47.45567 8.56851 1420 ft 9 kts 96°
2026-05-07 09:04 47.45564 8.56964 1421 ft 12 kts 78°
2026-05-07 09:04 47.45623 8.57023 1425 ft 8 kts
2026-05-07 09:05 47.45660 8.57018 1425 ft 3 kts 324°
2026-05-07 09:05 47.45664 8.56997 1424 ft 1 kts 275°
2026-05-07 09:05 47.45664 8.56993 1424 ft 0 kts 275°
2026-05-07 09:06 47.45664 8.56992 1424 ft 2 kts 275°
2026-05-07 09:06 47.45690 8.56619 1417 ft 75 kts 276°
2026-05-07 09:06 47.45768 8.55534 1403 ft 136 kts 276°
2026-05-07 09:06 47.45874 8.53986 1738 ft 153 kts 275°
2026-05-07 09:07 47.45983 8.52429 2539 ft 152 kts 276°
2026-05-07 09:07 47.46097 8.50836 3126 ft 160 kts 275°
2026-05-07 09:07 47.46212 8.49231 3855 ft 155 kts 275°
2026-05-07 09:07 47.46063 8.47700 4416 ft 157 kts 240°
2026-05-07 09:08 47.45421 8.46393 4912 ft 157 kts 242°
2026-05-07 09:08 47.44824 8.45043 5330 ft 164 kts 222°
2026-05-07 09:08 47.43670 8.44458 5487 ft 192 kts 177°
2026-05-07 09:08 47.42431 8.45364 5643 ft 221 kts 133°
2026-05-07 09:09 47.41787 8.47545 5844 ft 249 kts 99°
2026-05-07 09:09 47.41675 8.50211 6224 ft 273 kts 88°
2026-05-07 09:09 47.41762 8.53091 6870 ft 286 kts 86°
2026-05-07 09:09 47.41889 8.56056 7745 ft 292 kts 87°
2026-05-07 09:10 47.41990 8.59085 8616 ft 297 kts 89°
2026-05-07 09:10 47.42052 8.62157 9483 ft 301 kts 90°
2026-05-07 09:10 47.42082 8.65268 10272 ft 307 kts 91°
2026-05-07 09:10 47.42087 8.68545 10514 ft 330 kts 91°
2026-05-07 09:11 47.42074 8.72057 10707 ft 352 kts 91°
2026-05-07 09:11 47.42050 8.75713 11237 ft 360 kts 91°
2026-05-07 09:11 47.42027 8.79436 11873 ft 365 kts 91°
2026-05-07 09:11 47.42007 8.83215 12436 ft 373 kts 91°
2026-05-07 09:12 47.41984 8.87139 12563 ft 392 kts 91°
2026-05-07 09:12 47.41959 8.91254 12702 ft 409 kts 91°
2026-05-07 09:12 47.41935 8.95524 13021 ft 420 kts 91°
2026-05-07 09:12 47.41913 8.99858 13590 ft 424 kts 91°
2026-05-07 09:13 47.41887 9.04235 14119 ft 427 kts 91°
2026-05-07 09:13 47.41859 9.08583 14609 ft 430 kts 91°
2026-05-07 09:13 47.41825 9.13012 15093 ft 433 kts 91°
2026-05-07 09:13 47.41788 9.17468 15556 ft 436 kts 91°
2026-05-07 09:14 47.41751 9.21971 15976 ft 440 kts 91°
2026-05-07 09:14 47.41712 9.26497 16422 ft 443 kts 91°
2026-05-07 09:14 47.41672 9.31059 16836 ft 447 kts 91°
2026-05-07 09:14 47.41628 9.35660 17246 ft 449 kts 91°
2026-05-07 09:15 47.41580 9.40284 17697 ft 452 kts 91°
2026-05-07 09:15 47.41532 9.44938 18154 ft 454 kts 91°
2026-05-07 09:15 47.41486 9.49598 18551 ft 456 kts 91°
2026-05-07 09:15 47.41437 9.54283 18906 ft 457 kts 91°
2026-05-07 09:16 47.41384 9.58991 19251 ft 459 kts 91°
2026-05-07 09:16 47.41328 9.63712 19600 ft 460 kts 91°
2026-05-07 09:16 47.41272 9.68451 19932 ft 462 kts 91°
2026-05-07 09:16 47.41214 9.73130 20250 ft 463 kts 91°
2026-05-07 09:17 47.41152 9.77893 20566 ft 464 kts 91°
2026-05-07 09:17 47.41087 9.82664 20895 ft 466 kts 91°
2026-05-07 09:17 47.41018 9.87455 21187 ft 467 kts 91°
2026-05-07 09:17 47.40950 9.92252 21477 ft 469 kts 91°
2026-05-07 09:18 47.40880 9.97086 21765 ft 470 kts 91°
2026-05-07 09:18 47.40807 10.01926 22037 ft 472 kts 91°
2026-05-07 09:18 47.40732 10.06780 22247 ft 474 kts 91°
2026-05-07 09:18 47.40653 10.11664 22469 ft 477 kts 91°
2026-05-07 09:19 47.40568 10.16580 22673 ft 480 kts 91°
2026-05-07 09:19 47.40481 10.21507 22949 ft 480 kts 91°
2026-05-07 09:19 47.40394 10.26440 23135 ft 482 kts 91°
2026-05-07 09:19 47.40308 10.31406 23378 ft 483 kts 91°
2026-05-07 09:20 47.40221 10.36365 23602 ft 484 kts 91°
2026-05-07 09:20 47.40151 10.40226 23715 ft 486 kts 91°
2026-05-07 09:20 47.40100 10.42911 23891 ft 483 kts 91°
2026-05-07 09:20 47.39939 10.47612 24117 ft 483 kts 97°
2026-05-07 09:21 47.39387 10.52499 24338 ft 482 kts 103°
2026-05-07 09:21 47.38710 10.57342 24591 ft 481 kts 103°
2026-05-07 09:21 47.38037 10.62172 24850 ft 481 kts 103°
2026-05-07 09:21 47.37373 10.66957 25111 ft 480 kts 103°
2026-05-07 09:22 47.36706 10.71773 25378 ft 479 kts 103°
2026-05-07 09:22 47.36034 10.76595 25627 ft 479 kts 103°
2026-05-07 09:22 47.35360 10.81404 25886 ft 479 kts 103°
2026-05-07 09:22 47.34770 10.85616 26112 ft 478 kts 104°
2026-05-07 09:23 47.34104 10.90421 26353 ft 479 kts 104°
2026-05-07 09:23 47.33428 10.95242 26633 ft 479 kts 104°
2026-05-07 09:23 47.32748 11.00047 26893 ft 479 kts 104°
2026-05-07 09:23 47.32065 11.04852 27193 ft 478 kts 104°
2026-05-07 09:24 47.31388 11.09590 27477 ft 478 kts 104°
2026-05-07 09:24 47.30700 11.14381 27774 ft 478 kts 104°
2026-05-07 09:24 47.30011 11.19163 28088 ft 477 kts 105°
2026-05-07 09:24 47.29321 11.23938 28383 ft 477 kts 105°
2026-05-07 09:25 47.28630 11.28726 28671 ft 477 kts 106°
2026-05-07 09:25 47.27937 11.33499 28935 ft 477 kts 106°
2026-05-07 09:25 47.27240 11.38268 29233 ft 477 kts 107°
2026-05-07 09:25 47.26541 11.43041 29536 ft 476 kts 107°
2026-05-07 09:26 47.25712 11.47739 29826 ft 472 kts 114°
2026-05-07 09:26 47.24909 11.50765 30005 ft 468 kts 120°
2026-05-07 09:26 47.23410 11.54904 30241 ft 461 kts 128°
2026-05-07 09:26 47.20977 11.60071 30531 ft 458 kts 131°
2026-05-07 09:27 47.19764 11.62607 30674 ft 457 kts 130°
2026-05-07 09:27 47.17937 11.66429 30946 ft 456 kts 132°
2026-05-07 09:27 47.14306 11.74024 31493 ft 454 kts 132°
2026-05-07 09:28 47.12489 11.77818 31725 ft 454 kts 132°
2026-05-07 09:28 47.10668 11.81603 31961 ft 454 kts 132°
2026-05-07 09:28 47.08847 11.85392 32259 ft 454 kts 130°
2026-05-07 09:28 47.07242 11.89432 32519 ft 462 kts 122°
2026-05-07 09:29 47.05828 11.93679 32681 ft 463 kts 122°
2026-05-07 09:29 47.04416 11.97917 32923 ft 463 kts 122°
2026-05-07 09:29 47.03003 12.02156 33165 ft 462 kts 122°
2026-05-07 09:29 47.01589 12.06382 33415 ft 462 kts 122°
2026-05-07 09:30 47.00173 12.10607 33607 ft 462 kts 122°
2026-05-07 09:30 46.98773 12.14777 33866 ft 462 kts 122°
2026-05-07 09:30 46.97352 12.18999 34138 ft 462 kts 122°
2026-05-07 09:30 46.95932 12.23212 34385 ft 461 kts 122°
2026-05-07 09:31 46.94509 12.27423 34604 ft 461 kts 122°
2026-05-07 09:31 46.93082 12.31643 34812 ft 462 kts 122°
2026-05-07 09:31 46.91655 12.35853 34932 ft 462 kts 122°
2026-05-07 09:32 46.88780 12.44311 35005 ft 468 kts 122°
2026-05-07 09:32 46.85869 12.52856 34989 ft 470 kts 122°
2026-05-07 09:33 46.82954 12.61413 34984 ft 471 kts 122°
2026-05-07 09:33 46.80024 12.69963 34984 ft 471 kts 123°
2026-05-07 09:34 46.77090 12.78476 34966 ft 469 kts 123°
2026-05-07 09:34 46.74153 12.86983 34980 ft 470 kts 123°
2026-05-07 09:35 46.71230 12.95421 34986 ft 469 kts 123°
2026-05-07 09:35 46.68277 13.03913 34990 ft 469 kts 123°
2026-05-07 09:36 46.65329 13.12374 34964 ft 468 kts 123°
2026-05-07 09:36 46.62373 13.20824 34979 ft 468 kts 124°
2026-05-07 09:37 46.59416 13.29264 34988 ft 468 kts 124°
2026-05-07 09:37 46.56417 13.37595 34982 ft 465 kts 128°
2026-05-07 09:38 46.52697 13.45178 34960 ft 459 kts 133°
2026-05-07 09:38 46.48890 13.52625 34982 ft 458 kts 134°
2026-05-07 09:39 46.45075 13.60072 34992 ft 458 kts 134°
2026-05-07 09:39 46.41285 13.67461 34998 ft 458 kts 134°
2026-05-07 09:40 46.37467 13.74879 35009 ft 458 kts 134°
2026-05-07 09:40 46.33671 13.82230 34976 ft 458 kts 134°
2026-05-07 09:41 46.29851 13.89624 34983 ft 459 kts 134°
2026-05-07 09:41 46.26029 13.97012 34992 ft 459 kts 134°
2026-05-07 09:42 46.22190 14.04395 35002 ft 459 kts 134°
2026-05-07 09:42 46.18344 14.11767 34975 ft 459 kts 134°
2026-05-07 09:43 46.14520 14.19092 34992 ft 459 kts 134°
2026-05-07 09:43 46.10657 14.26458 34999 ft 459 kts 134°
2026-05-07 09:44 46.06799 14.33801 35005 ft 459 kts 134°
2026-05-07 09:44 46.02954 14.41102 34956 ft 460 kts 134°
2026-05-07 09:45 45.99075 14.48442 34984 ft 460 kts 134°
2026-05-07 09:45 45.95201 14.55773 35002 ft 460 kts 134°
2026-05-07 09:46 45.91312 14.63113 35012 ft 461 kts 134°
2026-05-07 09:46 45.87437 14.70402 35020 ft 461 kts 135°
2026-05-07 09:47 45.83537 14.77700 35000 ft 460 kts 135°
2026-05-07 09:47 45.79637 14.84968 35012 ft 460 kts 135°
2026-05-07 09:48 45.75737 14.92240 35029 ft 460 kts 135°
2026-05-07 09:48 45.71869 14.99456 35029 ft 460 kts 135°
2026-05-07 09:49 45.67966 15.06709 35000 ft 460 kts 135°
2026-05-07 09:49 45.64047 15.13951 35014 ft 460 kts 135°
2026-05-07 09:50 45.60128 15.21182 35028 ft 460 kts 135°
2026-05-07 09:50 45.56221 15.28375 35036 ft 460 kts 135°
2026-05-07 09:51 45.52294 15.35584 35035 ft 460 kts 135°
2026-05-07 09:51 45.48326 15.42727 35041 ft 459 kts 136°
2026-05-07 09:52 45.44319 15.49808 35042 ft 459 kts 136°
2026-05-07 09:52 45.40308 15.56878 35044 ft 459 kts 136°
2026-05-07 09:53 45.36299 15.63966 35043 ft 459 kts 136°
2026-05-07 09:53 45.32278 15.71057 35027 ft 460 kts 136°
2026-05-07 09:54 45.28290 15.78091 35035 ft 461 kts 136°
2026-05-07 09:54 45.24261 15.85173 35024 ft 461 kts 136°
2026-05-07 09:55 45.20223 15.92256 35041 ft 461 kts 136°
2026-05-07 09:55 45.16199 15.99277 35020 ft 461 kts 136°
2026-05-07 09:56 45.12141 16.06344 35036 ft 462 kts 136°
2026-05-07 09:56 45.08083 16.13404 35048 ft 462 kts 136°
2026-05-07 09:57 45.04012 16.20476 35054 ft 463 kts 136°
2026-05-07 09:57 44.99964 16.27485 35028 ft 463 kts 135°
2026-05-07 09:58 44.95885 16.34517 35041 ft 462 kts 135°
2026-05-07 09:58 44.91792 16.41558 35057 ft 463 kts 135°
2026-05-07 09:59 44.87705 16.48578 35060 ft 463 kts 135°
2026-05-07 09:59 44.83614 16.55581 35067 ft 462 kts 135°
2026-05-07 10:00 44.79539 16.62534 35061 ft 462 kts 135°
2026-05-07 10:00 44.75445 16.69519 35072 ft 462 kts 135°
2026-05-07 10:01 44.71355 16.76481 35066 ft 462 kts 135°
2026-05-07 10:01 44.67258 16.83428 35063 ft 461 kts 135°
2026-05-07 10:02 44.63156 16.90377 35060 ft 461 kts 135°
2026-05-07 10:02 44.59080 16.97267 35069 ft 461 kts 135°
2026-05-07 10:03 44.54969 17.04186 35072 ft 461 kts 135°
2026-05-07 10:03 44.50855 17.11091 35074 ft 461 kts 135°
2026-05-07 10:04 44.46732 17.18004 35070 ft 460 kts 135°
2026-05-07 10:04 44.42647 17.24837 35083 ft 459 kts 135°
2026-05-07 10:05 44.38539 17.31695 35085 ft 459 kts 135°
2026-05-07 10:05 44.34442 17.38510 35095 ft 459 kts 135°
2026-05-07 10:06 44.30333 17.45329 35082 ft 458 kts 135°
2026-05-07 10:06 44.26227 17.52118 35092 ft 457 kts 135°
2026-05-07 10:07 44.22116 17.58903 35100 ft 457 kts 135°
2026-05-07 10:07 44.18007 17.65671 35101 ft 456 kts 135°
2026-05-07 10:08 44.13927 17.72390 35081 ft 456 kts 135°
2026-05-07 10:08 44.09817 17.79145 35079 ft 457 kts 135°
2026-05-07 10:09 44.05693 17.85880 35084 ft 457 kts 135°
2026-05-07 10:09 44.01562 17.92613 35090 ft 457 kts 135°
2026-05-07 10:10 43.97457 17.99302 35078 ft 458 kts 135°
2026-05-07 10:10 43.93328 18.06031 35091 ft 457 kts 135°
2026-05-07 10:11 43.89187 18.12746 35098 ft 457 kts 136°
2026-05-07 10:11 43.85743 18.18303 35102 ft 457 kts 136°
2026-05-07 10:12 43.80922 18.26081 35104 ft 457 kts 136°
2026-05-07 10:12 43.77445 18.31679 35104 ft 457 kts 136°
2026-05-07 10:13 43.73324 18.38295 35096 ft 456 kts 136°
2026-05-07 10:13 43.69171 18.44957 35091 ft 456 kts 136°
2026-05-07 10:14 43.65023 18.51612 35102 ft 456 kts 136°
2026-05-07 10:14 43.60894 18.58192 35100 ft 456 kts 136°
2026-05-07 10:15 43.56730 18.64816 35107 ft 456 kts 136°
2026-05-07 10:15 43.52567 18.71420 35110 ft 456 kts 136°
2026-05-07 10:16 43.48429 18.77980 35114 ft 456 kts 136°
2026-05-07 10:16 43.44269 18.84562 35108 ft 455 kts 136°
2026-05-07 10:17 43.40103 18.91141 35116 ft 454 kts 136°
2026-05-07 10:17 43.35976 18.97648 35126 ft 453 kts 136°
2026-05-07 10:18 43.31819 19.04176 35125 ft 452 kts 136°
2026-05-07 10:18 43.27663 19.10676 35127 ft 452 kts 136°
2026-05-07 10:19 43.23515 19.17158 35116 ft 451 kts 136°
2026-05-07 10:19 43.19398 19.23591 35131 ft 451 kts 136°
2026-05-07 10:20 43.15248 19.30048 35125 ft 450 kts 136°
2026-05-07 10:20 43.11104 19.36478 35123 ft 450 kts 136°
2026-05-07 10:21 43.06985 19.42870 35127 ft 450 kts 136°
2026-05-07 10:21 43.02832 19.49289 35107 ft 450 kts 137°
2026-05-07 10:22 42.98666 19.55709 35103 ft 452 kts 137°
2026-05-07 10:22 42.94486 19.62147 35102 ft 452 kts 137°
2026-05-07 10:23 42.90322 19.68550 35105 ft 453 kts 137°
2026-05-07 10:23 42.86110 19.74987 35096 ft 454 kts 136°
2026-05-07 10:24 42.81925 19.81384 35100 ft 455 kts 137°
2026-05-07 10:24 42.77712 19.87818 35108 ft 455 kts 137°
2026-05-07 10:25 42.73488 19.94250 35114 ft 455 kts 137°
2026-05-07 10:25 42.69260 20.00673 35116 ft 455 kts 137°
2026-05-07 10:26 42.65051 20.07045 35131 ft 456 kts 137°
2026-05-07 10:26 42.60806 20.13456 35133 ft 456 kts 137°
2026-05-07 10:27 42.56572 20.19847 35144 ft 454 kts 137°
2026-05-07 10:27 42.52341 20.26224 35154 ft 454 kts 137°
2026-05-07 10:28 42.48144 20.32538 35154 ft 453 kts 137°
2026-05-07 10:28 42.43915 20.38875 35155 ft 453 kts 137°
2026-05-07 10:29 42.39688 20.45195 35154 ft 453 kts 137°
2026-05-07 10:29 42.35456 20.51516 35131 ft 454 kts 136°
2026-05-07 10:30 42.29077 20.61014 35123 ft 456 kts 137°
2026-05-07 10:30 42.24796 20.67367 35127 ft 456 kts 137°
2026-05-07 10:31 42.20543 20.73675 35132 ft 457 kts 137°
2026-05-07 10:31 42.16255 20.80015 35141 ft 457 kts 137°
2026-05-07 10:32 42.11964 20.86338 35152 ft 456 kts 137°
2026-05-07 10:32 42.07677 20.92637 35148 ft 456 kts 137°
2026-05-07 10:33 42.03394 20.98922 35141 ft 456 kts 137°
2026-05-07 10:33 41.99101 21.05211 35151 ft 457 kts 137°
2026-05-07 10:34 41.94795 21.11500 35153 ft 457 kts 137°
2026-05-07 10:34 41.90489 21.17788 35142 ft 458 kts 137°
2026-05-07 10:35 41.86167 21.24079 35145 ft 458 kts 137°
2026-05-07 10:35 41.81875 21.30318 35144 ft 458 kts 137°
2026-05-07 10:36 41.77518 21.36639 35150 ft 459 kts 137°
2026-05-07 10:36 41.73213 21.42866 35153 ft 459 kts 137°
2026-05-07 10:37 41.68871 21.49124 35165 ft 459 kts 137°
2026-05-07 10:37 41.64529 21.55378 35167 ft 459 kts 137°
2026-05-07 10:38 41.60182 21.61629 35176 ft 459 kts 137°
2026-05-07 10:38 41.55834 21.67878 35179 ft 459 kts 137°
2026-05-07 10:39 41.51487 21.74113 35174 ft 459 kts 138°
2026-05-07 10:39 41.47127 21.80335 35164 ft 458 kts 137°
2026-05-07 10:40 41.42767 21.86541 35168 ft 458 kts 137°
2026-05-07 10:40 41.38405 21.92734 35172 ft 458 kts 137°
2026-05-07 10:41 41.34049 21.98927 35179 ft 458 kts 137°
2026-05-07 10:41 41.29716 22.05072 35179 ft 458 kts 137°
2026-05-07 10:42 41.25335 22.11266 35175 ft 458 kts 137°
2026-05-07 10:42 41.20956 22.17439 35156 ft 459 kts 137°
2026-05-07 10:43 41.16544 22.23588 35150 ft 458 kts 140°
2026-05-07 10:43 41.11667 22.28977 35158 ft 456 kts 145°
2026-05-07 10:44 41.06733 22.34283 35157 ft 456 kts 145°
2026-05-07 10:44 41.01831 22.39538 35154 ft 456 kts 145°
2026-05-07 10:45 40.96892 22.44831 35159 ft 456 kts 145°
2026-05-07 10:45 40.91942 22.50127 35128 ft 458 kts 145°
2026-05-07 10:46 40.86982 22.55421 35141 ft 459 kts 145°
2026-05-07 10:46 40.82011 22.60719 35139 ft 459 kts 145°
2026-05-07 10:47 40.77030 22.66020 35141 ft 460 kts 145°
2026-05-07 10:47 40.72041 22.71308 35144 ft 460 kts 145°
2026-05-07 10:48 40.67037 22.76599 35137 ft 461 kts 145°
2026-05-07 10:48 40.62030 22.81896 35138 ft 463 kts 145°
2026-05-07 10:49 40.57026 22.87182 35142 ft 465 kts 145°
2026-05-07 10:49 40.51962 22.92509 35140 ft 466 kts 145°
2026-05-07 10:50 40.46884 22.97835 35152 ft 467 kts 144°
2026-05-07 10:50 40.42240 23.03876 35153 ft 471 kts 136°
2026-05-07 10:51 40.37732 23.10129 35151 ft 471 kts 137°
2026-05-07 10:51 40.33201 23.16381 35121 ft 474 kts 137°
2026-05-07 10:52 40.28666 23.22616 35121 ft 476 kts 137°
2026-05-07 10:52 40.24086 23.28913 35120 ft 478 kts 137°
2026-05-07 10:53 40.19496 23.35220 35116 ft 479 kts 137°
2026-05-07 10:53 40.14889 23.41522 35116 ft 479 kts 137°
2026-05-07 10:54 40.10270 23.47829 35120 ft 480 kts 137°
2026-05-07 10:54 40.05628 23.54167 35118 ft 481 kts 137°
2026-05-07 10:55 40.01023 23.60441 35127 ft 482 kts 137°
2026-05-07 10:55 39.96379 23.66752 35133 ft 482 kts 137°
2026-05-07 10:56 39.91726 23.73051 35138 ft 482 kts 137°
2026-05-07 10:56 39.87067 23.79348 35123 ft 482 kts 137°
2026-05-07 10:57 39.82426 23.85609 35124 ft 483 kts 137°
2026-05-07 10:57 39.77762 23.91897 35122 ft 483 kts 137°
2026-05-07 10:58 39.73875 23.97126 35124 ft 483 kts 137°
2026-05-07 10:58 39.68432 24.04435 35126 ft 483 kts 137°
2026-05-07 10:59 39.63755 24.10693 35133 ft 483 kts 136°
2026-05-07 10:59 39.59859 24.15899 35131 ft 482 kts 136°
2026-05-07 11:00 39.55187 24.22138 35135 ft 482 kts 136°
2026-05-07 11:00 39.50501 24.28367 35142 ft 482 kts 136°
2026-05-07 11:01 39.45819 24.34588 35146 ft 482 kts 137°
2026-05-07 11:01 39.41159 24.40758 35136 ft 482 kts 137°
2026-05-07 11:02 39.36454 24.46977 35130 ft 482 kts 137°
2026-05-07 11:02 39.31756 24.53179 35129 ft 483 kts 137°
2026-05-07 11:03 39.27056 24.59375 35122 ft 483 kts 137°
2026-05-07 11:03 39.22373 24.65530 35126 ft 484 kts 137°
2026-05-07 11:04 39.17625 24.71757 35126 ft 484 kts 137°
2026-05-07 11:04 39.12929 24.77897 35134 ft 484 kts 137°
2026-05-07 11:05 39.08201 24.84075 35134 ft 484 kts 137°
2026-05-07 11:05 39.03527 24.90177 35136 ft 484 kts 137°
2026-05-07 11:06 38.98790 24.96341 35121 ft 484 kts 137°
2026-05-07 11:06 38.94041 25.02500 35127 ft 485 kts 137°
2026-05-07 11:07 38.89284 25.08673 35124 ft 486 kts 137°
2026-05-07 11:07 38.84515 25.14842 35125 ft 487 kts 137°
2026-05-07 11:08 38.79748 25.21002 35128 ft 487 kts 137°
2026-05-07 11:08 38.74995 25.27114 35137 ft 487 kts 137°
2026-05-07 11:09 38.70214 25.33258 35128 ft 487 kts 137°
2026-05-07 11:09 38.65423 25.39414 35129 ft 488 kts 137°
2026-05-07 11:10 38.60618 25.45570 35131 ft 489 kts 137°
2026-05-07 11:10 38.55806 25.51718 35136 ft 489 kts 137°
2026-05-07 11:11 38.50981 25.57873 35140 ft 490 kts 137°
2026-05-07 11:11 38.46163 25.64018 35142 ft 490 kts 137°
2026-05-07 11:12 38.41335 25.70144 35151 ft 490 kts 138°
2026-05-07 11:12 38.36489 25.76265 35141 ft 491 kts 138°
2026-05-07 11:13 38.31642 25.82395 35146 ft 491 kts 138°
2026-05-07 11:13 38.26667 25.88349 35150 ft 488 kts 146°
2026-05-07 11:14 38.20832 25.92564 35149 ft 479 kts 163°
2026-05-07 11:14 38.14567 25.95400 35149 ft 478 kts 165°
2026-05-07 11:15 38.08291 25.98258 35140 ft 479 kts 164°
2026-05-07 11:15 38.02002 26.01127 35140 ft 480 kts 165°
2026-05-07 11:16 37.95751 26.03968 34652 ft 479 kts 165°
2026-05-07 11:16 37.92615 26.05389 33792 ft 479 kts 165°
2026-05-07 11:16 37.89477 26.06809 32846 ft 479 kts 164°
2026-05-07 11:17 37.86337 26.08229 31859 ft 480 kts 164°
2026-05-07 11:17 37.83187 26.09649 30887 ft 481 kts 163°
2026-05-07 11:17 37.80029 26.11072 29874 ft 482 kts 163°
2026-05-07 11:17 37.76865 26.12499 28673 ft 483 kts 163°
2026-05-07 11:18 37.73687 26.13935 27421 ft 486 kts 163°
2026-05-07 11:18 37.70493 26.15378 26152 ft 489 kts 163°
2026-05-07 11:18 37.67276 26.16829 24846 ft 493 kts 162°
2026-05-07 11:18 37.64037 26.18284 23796 ft 492 kts 162°
2026-05-07 11:19 37.60829 26.19723 22845 ft 486 kts 162°
2026-05-07 11:19 37.57665 26.21144 21972 ft 480 kts 162°
2026-05-07 11:19 37.54534 26.22552 21125 ft 474 kts 162°
2026-05-07 11:19 37.51436 26.23945 20310 ft 470 kts 162°
2026-05-07 11:20 37.48374 26.25318 19539 ft 465 kts 162°
2026-05-07 11:20 37.45334 26.26674 18815 ft 461 kts 162°
2026-05-07 11:20 37.42356 26.28000 18052 ft 457 kts 162°
2026-05-07 11:20 37.39415 26.29484 17268 ft 455 kts 153°
2026-05-07 11:21 37.36624 26.31429 16518 ft 451 kts 152°
2026-05-07 11:21 37.33936 26.33320 15834 ft 446 kts 151°
2026-05-07 11:21 37.31203 26.35240 15159 ft 442 kts 151°
2026-05-07 11:21 37.28563 26.37088 14528 ft 438 kts 151°
2026-05-07 11:22 37.25915 26.38944 13895 ft 434 kts 151°
2026-05-07 11:22 37.23290 26.40787 13218 ft 429 kts 151°
2026-05-07 11:22 37.20720 26.42589 12943 ft 415 kts 151°
2026-05-07 11:22 37.18254 26.44316 12818 ft 397 kts 151°
2026-05-07 11:23 37.15889 26.45972 12683 ft 381 kts 151°
2026-05-07 11:23 37.13620 26.47561 12552 ft 367 kts 151°
2026-05-07 11:23 37.11434 26.49088 12431 ft 353 kts 151°
2026-05-07 11:23 37.09326 26.50558 12299 ft 341 kts 151°
2026-05-07 11:24 37.07291 26.51978 12176 ft 329 kts 151°
2026-05-07 11:24 37.05321 26.53350 12040 ft 319 kts 151°
2026-05-07 11:24 37.03397 26.54692 11774 ft 314 kts 151°
2026-05-07 11:24 37.01499 26.56018 11461 ft 311 kts 151°
2026-05-07 11:25 36.99618 26.57334 11133 ft 309 kts 150°
2026-05-07 11:25 36.97749 26.58638 10802 ft 307 kts 150°
2026-05-07 11:25 36.95893 26.59931 10476 ft 304 kts 150°
2026-05-07 11:25 36.94050 26.61214 10150 ft 302 kts 150°
2026-05-07 11:26 36.92217 26.62487 9796 ft 300 kts 151°
2026-05-07 11:26 36.90399 26.63745 9428 ft 297 kts 150°
2026-05-07 11:26 36.88598 26.64989 9056 ft 295 kts 150°
2026-05-07 11:26 36.86809 26.66228 8680 ft 293 kts 150°
2026-05-07 11:27 36.85037 26.67459 8313 ft 290 kts 149°
2026-05-07 11:27 36.83444 26.68964 7946 ft 286 kts 133°
2026-05-07 11:27 36.82362 26.70974 7580 ft 282 kts 116°
2026-05-07 11:27 36.81522 26.73167 7311 ft 275 kts 114°
2026-05-07 11:28 36.80739 26.75291 7182 ft 263 kts 114°
2026-05-07 11:28 36.80060 26.77351 7057 ft 250 kts 101°
2026-05-07 11:28 36.80106 26.79428 6923 ft 235 kts 69°
2026-05-07 11:28 36.80975 26.81080 6659 ft 228 kts 38°
2026-05-07 11:29 36.82398 26.81858 6312 ft 226 kts
2026-05-07 11:29 36.83975 26.81867 5921 ft 227 kts 356°
2026-05-07 11:29 36.85550 26.81723 5584 ft 227 kts 358°
2026-05-07 11:29 36.87103 26.81983 5227 ft 226 kts 18°
2026-05-07 11:30 36.88553 26.82689 5022 ft 220 kts 24°
2026-05-07 11:30 36.89918 26.83459 4893 ft 211 kts 27°
2026-05-07 11:30 36.91154 26.84385 4727 ft 204 kts 35°
2026-05-07 11:30 36.92291 26.85436 4476 ft 202 kts 37°
2026-05-07 11:31 36.93406 26.86499 4210 ft 201 kts 37°
2026-05-07 11:31 36.94492 26.87592 4037 ft 200 kts 41°
2026-05-07 11:31 36.95469 26.88792 4010 ft 200 kts 48°
2026-05-07 11:31 36.96340 26.90150 4012 ft 200 kts 54°
2026-05-07 11:32 36.97820 26.93098 4012 ft 201 kts 69°
2026-05-07 11:32 36.97906 26.94800 4010 ft 200 kts 107°
2026-05-07 11:32 36.97332 26.96394 3888 ft 204 kts 121°
2026-05-07 11:33 36.96319 26.97592 3608 ft 202 kts 153°
2026-05-07 11:33 36.95036 26.98260 3426 ft 196 kts 160°
2026-05-07 11:33 36.93819 26.98889 3328 ft 183 kts 154°
2026-05-07 11:33 36.92764 26.99647 3294 ft 166 kts 147°
2026-05-07 11:34 36.91832 27.00410 3187 ft 157 kts 149°
2026-05-07 11:34 36.90888 27.01086 2957 ft 155 kts 152°
2026-05-07 11:34 36.89945 27.01732 2735 ft 154 kts 152°
2026-05-07 11:34 36.89014 27.02361 2502 ft 151 kts 154°
2026-05-07 11:35 36.88090 27.02951 2294 ft 146 kts 155°
2026-05-07 11:35 36.87186 27.03519 2090 ft 145 kts 154°
2026-05-07 11:35 36.86309 27.04131 1874 ft 144 kts 152°
2026-05-07 11:35 36.85445 27.04761 1675 ft 144 kts 150°
2026-05-07 11:36 36.84589 27.05405 1477 ft 144 kts 151°
2026-05-07 11:36 36.83732 27.06014 1286 ft 144 kts 154°
2026-05-07 11:36 36.82854 27.06613 1088 ft 144 kts 155°
2026-05-07 11:36 36.81978 27.07212 881 ft 143 kts 154°
2026-05-07 11:37 36.81123 27.07828 663 ft 141 kts 153°
2026-05-07 11:37 36.80294 27.08466 456 ft 139 kts 150°
2026-05-07 11:37 36.79562 27.09033 414 ft 91 kts 147°
2026-05-07 11:37 36.79206 27.09308 406 ft 50 kts 148°
2026-05-07 11:38 36.78924 27.09527 394 ft 45 kts 147°
2026-05-07 11:38 36.78705 27.09700 393 ft 21 kts 148°
2026-05-07 11:38 36.78621 27.09761 391 ft 10 kts 163°
2026-05-07 11:38 36.78561 27.09782 389 ft 6 kts 117°
2026-05-07 11:39 36.78581 27.09796 389 ft 2 kts 336°
2026-05-07 11:39 36.78611 27.09774 391 ft 8 kts 329°
2026-05-07 11:39 36.78673 27.09726 393 ft 10 kts 328°
2026-05-07 11:39 36.78728 27.09682 393 ft 9 kts 327°
2026-05-07 11:40 36.78788 27.09635 390 ft 12 kts 328°
2026-05-07 11:40 36.78885 27.09561 397 ft 20 kts 328°
2026-05-07 11:40 36.79027 27.09449 398 ft 27 kts 328°
2026-05-07 11:40 36.79185 27.09328 405 ft 26 kts 328°
2026-05-07 11:41 36.79336 27.09210 412 ft 26 kts 328°
2026-05-07 11:41 36.79483 27.09093 412 ft 25 kts 327°
2026-05-07 11:41 36.79615 27.08999 416 ft 17 kts 343°
2026-05-07 11:41 36.79694 27.08989 415 ft 17 kts 358°
2026-05-07 11:42 36.79785 27.08986 411 ft 12 kts 358°
2026-05-07 11:42 36.79861 27.08982 417 ft 10 kts 358°
2026-05-07 11:42 36.79931 27.08977 417 ft 10 kts 349°
2026-05-07 11:42 36.80004 27.08929 415 ft 14 kts 327°
2026-05-07 11:43 36.80079 27.08870 419 ft 11 kts 328°
2026-05-07 11:43 36.80116 27.08841 415 ft 2 kts 328°
2026-05-07 11:43 36.80130 27.08832 419 ft 3 kts 340°
2026-05-07 11:43 36.80149 27.08843 419 ft 3 kts 39°
2026-05-07 11:44 36.80165 27.08871 419 ft 4 kts 57°
2026-05-07 11:44 36.80176 27.08893 417 ft 1 kts 58°
2026-05-07 11:44 36.80178 27.08897 417 ft 0 kts 58°